Location: Unspecified
(0.0000°N, 0.0000°E)
Time: 10:05:26
(UTC+00:00)

ARIANE 1 DEB - Pass Details

Date: 22 February 2026
Orbit: 1090 x 21662 km, 16.1° (Epoch: 9 December)

Event Time Altitude Azimuth Distance (km) Brightness Sun altitude
Rises 21:23:57 0° 270° (W) 10,661 ? -46.6°
Reaches altitude 10° 21:30:02 10° 267° (W) 10,991 ? -48.1°
Maximum altitude 02:10:18 72° 169° (S) 13,302 ? -59.2°
Drops below altitude 10° 02:59:25 10° 87° (E) 7,351 ? -47.5°
Sets 03:02:44 0° 85° (E) 7,562 ? -46.7°
